User: anonymous   Login
Location: Lombard
(41.8800°N, 88.0080°W)
Time: 06:15:15
(UTC-05:00)
Language:

ZACube-1 - Orbit

View from above orbital plane
View from above orbital plane
View from above satellite
View from above satellite

Ground track
Ground track

The orbit data is extracted from the following two-line orbital elements,

1 39417U 13066B   22142.17560002  .00003145  00000-0  38860-3 0  9993
2 39417  97.6346 114.8650 0059272 129.6528 230.9937 14.82239849459230
Epoch (UTC): 22 May 2022 04:12:51
Eccentricity: 0.0059272
inclination: 97.6346°
perigee height: 581 km
apogee height: 664 km
right ascension of ascending node: 114.8650°
argument of perigee: 129.6528°
revolutions per day: 14.82239849
mean anomaly at epoch: 230.9937°
orbit number at epoch: 45923

The dashed part of the orbit path shows where the satellite is in the earth's shadow,  

DLR